Location: Lake Crest
(37.6062°N, 88.9176°W)
Time: 07:38:11
(UTC+00:00)

Meteor 1-14 Rocket - Pass Details

Date: 15 December 2019
Orbit: 833 x 920 km, 81.3° (Epoch: 21 January)

Event Time Altitude Azimuth Distance (km) Brightness Sun altitude
Rises 10:27:43 0° 181° (S) 3,518 7.5 -29.9°
Reaches altitude 10° 10:30:10 10° 179° (S) 2,589 6.8 -29.4°
Maximum altitude 10:36:04 72° 96° (E) 962 4.5 -28.3°
Drops below altitude 10° 10:42:03 10° 13° (NNE) 2,621 6.8 -27.1°
Sets 10:44:32 0° 12° (NNE) 3,565 7.5 -26.6°
